TimeEST,TemperatureF,Dew PointF,Humidity,Sea Level PressureIn,VisibilityMPH,Wind Direction,Wind SpeedMPH,Gust SpeedMPH,PrecipitationIn,Events,Conditions,WindDirDegrees,DateUTC
12:16 AM,44.6,33.8,66,30.15,10.0,Calm,Calm,-,N/A,,Overcast,0,2000-01-01 05:16:00
12:36 AM,44.6,33.8,66,30.15,10.0,Calm,Calm,-,N/A,,Overcast,0,2000-01-01 05:36:00
12:56 AM,44.6,33.8,66,30.15,10.0,Calm,Calm,-,N/A,,Mostly Cloudy,0,2000-01-01 05:56:00
1:16 AM,44.6,33.8,66,30.15,10.0,Calm,Calm,-,N/A,,Scattered Clouds,0,2000-01-01 06:16:00
1:36 AM,42.8,32.0,66,30.15,10.0,Calm,Calm,-,N/A,,Scattered Clouds,0,2000-01-01 06:36:00
1:56 AM,42.8,32.0,66,30.16,10.0,SW,3.5,-,N/A,,Scattered Clouds,230,2000-01-01 06:56:00
2:16 AM,42.8,32.0,66,30.16,10.0,SW,3.5,-,N/A,,Clear,220,2000-01-01 07:16:00
2:36 AM,41.0,32.0,70,30.16,10.0,Calm,Calm,-,N/A,,Clear,0,2000-01-01 07:36:00
2:56 AM,41.0,32.0,70,30.17,10.0,Calm,Calm,-,N/A,,Clear,0,2000-01-01 07:56:00
3:16 AM,39.2,32.0,75,30.17,10.0,Calm,Calm,-,N/A,,Scattered Clouds,0,2000-01-01 08:16:00
3:36 AM,37.4,35.6,93,30.17,10.0,Calm,Calm,-,N/A,,Mostly Cloudy,0,2000-01-01 08:36:00
3:56 AM,37.4,33.8,87,30.16,10.0,Calm,Calm,-,N/A,,Scattered Clouds,0,2000-01-01 08:56:00
4:16 AM,37.4,33.8,87,30.17,10.0,Calm,Calm,-,N/A,,Clear,0,2000-01-01 09:16:00
4:36 AM,37.4,33.8,87,30.17,10.0,WSW,3.5,-,N/A,,Clear,250,2000-01-01 09:36:00
4:56 AM,39.2,35.6,87,30.17,10.0,Calm,Calm,-,N/A,,Scattered Clouds,0,2000-01-01 09:56:00
5:16 AM,39.2,35.6,87,30.17,10.0,Calm,Calm,-,N/A,,Mostly Cloudy,0,2000-01-01 10:16:00
5:36 AM,37.4,35.6,93,30.18,10.0,South,3.5,-,N/A,,Overcast,190,2000-01-01 10:36:00
5:56 AM,37.4,35.6,93,30.17,10.0,Calm,Calm,-,N/A,,Overcast,0,2000-01-01 10:56:00
6:16 AM,39.2,35.6,87,30.18,10.0,Calm,Calm,-,N/A,,Mostly Cloudy,0,2000-01-01 11:16:00
6:36 AM,37.4,35.6,93,30.19,10.0,Calm,Calm,-,N/A,,Overcast,0,2000-01-01 11:36:00
6:56 AM,39.2,35.6,87,30.19,10.0,West,3.5,-,N/A,,Overcast,270,2000-01-01 11:56:00
7:16 AM,39.2,37.4,93,30.19,10.0,Calm,Calm,-,N/A,,Overcast,0,2000-01-01 12:16:00
7:36 AM,37.4,35.6,93,30.20,10.0,Calm,Calm,-,N/A,,Overcast,0,2000-01-01 12:36:00
7:56 AM,37.4,35.6,93,30.21,10.0,Calm,Calm,-,N/A,,Overcast,0,2000-01-01 12:56:00
8:16 AM,37.4,35.6,93,30.21,10.0,Calm,Calm,-,N/A,,Overcast,0,2000-01-01 13:16:00
8:36 AM,39.2,37.4,93,30.22,10.0,Calm,Calm,-,N/A,,Overcast,0,2000-01-01 13:36:00
8:56 AM,37.4,35.6,93,30.22,10.0,Calm,Calm,-,N/A,,Overcast,0,2000-01-01 13:56:00
9:16 AM,37.4,35.6,93,30.22,10.0,Calm,Calm,-,N/A,,Overcast,0,2000-01-01 14:16:00
9:36 AM,41.0,37.4,87,30.23,10.0,Calm,Calm,-,N/A,,Overcast,0,2000-01-01 14:36:00
9:56 AM,41.0,37.4,87,30.23,10.0,Calm,Calm,-,N/A,,Overcast,0,2000-01-01 14:56:00
10:16 AM,44.6,39.2,81,30.24,10.0,Calm,Calm,-,N/A,,Overcast,0,2000-01-01 15:16:00
10:36 AM,44.6,37.4,76,30.24,10.0,Calm,Calm,-,N/A,,Overcast,0,2000-01-01 15:36:00
10:56 AM,46.4,39.2,76,30.24,10.0,ESE,3.5,-,N/A,,Overcast,120,2000-01-01 15:56:00
11:16 AM,46.4,39.2,76,30.24,10.0,SE,4.6,-,N/A,,Overcast,130,2000-01-01 16:16:00
11:36 AM,46.4,39.2,76,30.23,10.0,ESE,3.5,-,N/A,,Mostly Cloudy,120,2000-01-01 16:36:00
11:56 AM,50.0,41.0,71,30.22,10.0,ESE,3.5,-,N/A,,Overcast,120,2000-01-01 16:56:00
12:16 PM,51.8,42.8,71,30.20,10.0,Calm,Calm,-,N/A,,Overcast,0,2000-01-01 17:16:00
12:36 PM,53.6,42.8,67,30.19,10.0,ESE,4.6,-,N/A,,Scattered Clouds,120,2000-01-01 17:36:00
12:56 PM,55.4,42.8,63,30.18,10.0,ESE,6.9,-,N/A,,Clear,110,2000-01-01 17:56:00
1:16 PM,55.4,42.8,63,30.18,10.0,NNW,8.1,-,N/A,,Clear,330,2000-01-01 18:16:00
1:36 PM,55.4,42.8,63,30.18,10.0,NNW,9.2,-,N/A,,Scattered Clouds,340,2000-01-01 18:36:00
1:56 PM,55.4,42.8,63,30.18,10.0,NE,9.2,-,N/A,,Mostly Cloudy,40,2000-01-01 18:56:00
2:16 PM,53.6,42.8,67,30.18,10.0,East,6.9,-,N/A,,Mostly Cloudy,90,2000-01-01 19:16:00
2:36 PM,51.8,42.8,71,30.17,10.0,East,8.1,-,N/A,,Scattered Clouds,90,2000-01-01 19:36:00
2:56 PM,51.8,42.8,71,30.17,10.0,SSE,8.1,-,N/A,,Scattered Clouds,150,2000-01-01 19:56:00
3:16 PM,51.8,42.8,71,30.17,10.0,SE,9.2,-,N/A,,Clear,140,2000-01-01 20:16:00
3:36 PM,51.8,44.6,76,30.17,10.0,SE,9.2,-,N/A,,Clear,140,2000-01-01 20:36:00
3:56 PM,51.8,46.4,82,30.18,10.0,SE,8.1,-,N/A,,Clear,140,2000-01-01 20:56:00
4:16 PM,51.8,46.4,82,30.19,10.0,SE,5.8,-,N/A,,Clear,140,2000-01-01 21:16:00
4:36 PM,50.0,44.6,82,30.20,7.0,ESE,5.8,-,N/A,,Mostly Cloudy,120,2000-01-01 21:36:00
4:56 PM,50.0,46.4,87,30.20,5.0,SE,5.8,-,N/A,,Overcast,140,2000-01-01 21:56:00
5:16 PM,48.2,44.6,87,30.20,5.0,SE,4.6,-,N/A,,Overcast,130,2000-01-01 22:16:00
5:36 PM,46.4,46.4,100,30.20,3.0,SE,3.5,-,N/A,,Scattered Clouds,130,2000-01-01 22:36:00
5:56 PM,46.4,46.4,100,30.21,3.0,SE,5.8,-,N/A,,Clear,130,2000-01-01 22:56:00
6:16 PM,44.6,44.6,100,30.21,2.0,SE,4.6,-,N/A,,Clear,140,2000-01-01 23:16:00
6:36 PM,44.6,44.6,100,30.22,2.0,SSE,4.6,-,N/A,,Mostly Cloudy,150,2000-01-01 23:36:00
6:56 PM,46.4,46.4,100,30.23,3.0,SSE,3.5,-,N/A,,Overcast,150,2000-01-01 23:56:00
7:16 PM,46.4,46.4,100,30.22,2.0,SE,4.6,-,N/A,,Overcast,140,2000-01-02 00:16:00
7:36 PM,46.4,46.4,100,30.23,2.0,SSE,5.8,-,N/A,,Overcast,150,2000-01-02 00:36:00
7:56 PM,46.4,46.4,100,30.23,2.0,Calm,Calm,-,N/A,,Overcast,0,2000-01-02 00:56:00
8:16 PM,46.4,46.4,100,30.23,2.0,Calm,Calm,-,N/A,,Overcast,0,2000-01-02 01:16:00
8:36 PM,46.4,46.4,100,30.23,2.0,ESE,3.5,-,N/A,,Overcast,120,2000-01-02 01:36:00
8:56 PM,46.4,46.4,100,30.24,3.0,Calm,Calm,-,N/A,,Overcast,0,2000-01-02 01:56:00
9:16 PM,46.4,46.4,100,30.24,4.0,Calm,Calm,-,N/A,,Overcast,0,2000-01-02 02:16:00
9:36 PM,46.4,46.4,100,30.24,4.0,Calm,Calm,-,N/A,,Overcast,0,2000-01-02 02:36:00
9:56 PM,46.4,46.4,100,30.23,5.0,Calm,Calm,-,N/A,,Overcast,0,2000-01-02 02:56:00
10:16 PM,46.4,46.4,100,30.23,5.0,Calm,Calm,-,N/A,,Overcast,0,2000-01-02 03:16:00
10:36 PM,46.4,46.4,100,30.23,7.0,Calm,Calm,-,N/A,,Overcast,0,2000-01-02 03:36:00
10:56 PM,46.4,46.4,100,30.22,7.0,Calm,Calm,-,N/A,,Overcast,0,2000-01-02 03:56:00
11:16 PM,46.4,46.4,100,30.22,7.0,ESE,3.5,-,N/A,,Overcast,120,2000-01-02 04:16:00
11:36 PM,46.4,46.4,100,30.22,10.0,SSE,3.5,-,N/A,,Overcast,150,2000-01-02 04:36:00
11:56 PM,46.4,44.6,93,30.22,10.0,SSE,5.8,-,N/A,,Overcast,160,2000-01-02 04:56:00